EW5171 Weather Reports


Display with metric or nautical units.
time (UTC)temp
F
wind
direction
speed
MPH
gust
MPH
rain 1hr
in
rain 24hr
in
rain mn
in
humidity
%
barometer
mb
20260510145011 55 71 1.0 4.0 0.00 0.00 0.00 56 1011.7
20260510144519 54 217 1.0 4.0 0.00 0.00 0.00 56 1011.8
20260510144007 55 102 1.0 5.0 0.00 0.00 0.00 56 1011.9
20260510143507 55 294 1.0 5.0 0.00 0.00 0.00 56 1011.9
20260510143005 54 90 0.0 5.0 0.00 0.00 0.00 57 1011.9
20260510142505 54 246 2.0 5.0 0.00 0.00 0.00 56 1011.9
20260510142004 55 339 1.0 5.0 0.00 0.00 0.00 56 1012.0
20260510141504 55 209 2.0 5.0 0.00 0.00 0.00 57 1012.1
20260510141004 55 286 1.0 12.0 0.00 0.00 0.00 58 1012.1
20260510140503 55 293 4.0 12.0 0.00 0.00 0.00 57 1012.1
20260510140004 55 217 3.0 11.0 0.00 0.00 0.00 57 1012.0
20260510135506 56 258 3.0 11.0 0.00 0.00 0.00 58 1012.0
20260510135002 56 145 2.0 8.0 0.00 0.00 0.00 58 1012.0
20260510134502 56 254 1.0 7.0 0.00 0.00 0.00 60 1012.1
20260510134001 56 242 2.0 6.0 0.00 0.00 0.00 62 1012.1
20260510133501 55 306 0.0 6.0 0.00 0.00 0.00 62 1012.2
20260510133117 55 360 1.0 6.0 0.00 0.00 0.00 62 1012.2
20260510132600 56 242 1.0 5.0 0.00 0.00 0.00 62 1012.3
20260510132101 56 328 1.0 5.0 0.00 0.00 0.00 62 1012.3
20260510131605 56 165 1.0 7.0 0.00 0.00 0.00 62 1012.4
20260510131059 56 248 2.0 8.0 0.00 0.00 0.00 62 1012.4
20260510130558 56 282 3.0 8.0 0.00 0.00 0.00 60 1012.4
20260510130058 56 186 3.0 8.0 0.00 0.00 0.00 59 1012.4
20260510125557 57 209 2.0 8.0 0.00 0.00 0.00 59 1012.4
20260510125057 57 284 2.0 8.0 0.00 0.00 0.00 60 1012.5
20260510124600 57 347 2.0 8.0 0.00 0.00 0.00 61 1012.5
20260510124056 56 224 2.0 8.0 0.00 0.00 0.00 63 1012.5
20260510123556 56 220 2.0 9.0 0.00 0.00 0.00 64 1012.7
20260510123104 56 246 2.0 9.0 0.00 0.00 0.00 64 1012.7
20260510122556 55 309 2.0 8.0 0.00 0.00 0.00 66 1012.8
20260510122054 55 299 2.0 6.0 0.00 0.00 0.00 68 1012.9
20260510121553 54 250 2.0 8.0 0.00 0.00 0.00 68 1013.0
20260510121054 54 316 3.0 8.0 0.00 0.00 0.00 69 1013.1
20260510120553 54 304 1.0 5.0 0.00 0.00 0.00 70 1013.0
20260510120054 54 338 2.0 5.0 0.00 0.00 0.00 72 1013.0
20260510115555 53 55 1.0 5.0 0.00 0.00 0.00 75 1013.1
20260510115052 53 63 3.0 5.0 0.00 0.00 0.00 77 1013.2
20260510114551 52 53 1.0 4.0 0.00 0.00 0.00 78 1013.3
20260510114050 52 53 1.0 3.0 0.00 0.00 0.00 77 1013.3
20260510113551 52 53 0.0 2.0 0.00 0.00 0.00 77 1013.4
20260510113051 52 53 0.0 3.0 0.00 0.00 0.00 77 1013.5
20260510112550 52 51 1.0 5.0 0.00 0.00 0.00 76 1013.5
20260510112050 52 53 2.0 5.0 0.00 0.00 0.00 75 1013.4
20260510111548 53 37 0.0 3.0 0.00 0.00 0.00 75 1013.5
20260510111048 53 37 1.0 4.0 0.00 0.00 0.00 74 1013.5
20260510110549 54 15 1.0 4.0 0.00 0.00 0.00 73 1013.6
20260510110047 54 38 1.0 4.0 0.00 0.00 0.00 72 1013.7
20260510105548 55 32 0.0 4.0 0.00 0.00 0.00 70 1013.6
20260510105047 56 74 0.0 3.0 0.00 0.00 0.00 69 1013.6
20260510104548 56 126 0.0 3.0 0.00 0.00 0.00 68 1013.7
20260510104051 57 30 0.0 5.0 0.00 0.00 0.00 67 1013.7
20260510103547 58 24 1.0 9.0 0.00 0.00 0.00 61 1013.8
20260510103047 58 157 3.0 9.0 0.00 0.00 0.00 57 1013.7
20260510102547 59 269 2.0 6.0 0.00 0.00 0.00 54 1013.6
20260510102046 59 158 2.0 7.0 0.00 0.00 0.00 55 1013.6
20260510101545 58 344 2.0 9.0 0.00 0.00 0.00 57 1013.6
20260510101044 58 216 3.0 9.0 0.00 0.00 0.00 57 1013.8
20260510100546 58 227 1.0 5.0 0.00 0.00 0.00 57 1013.9
20260510100042 58 309 2.0 8.0 0.00 0.00 0.00 55 1014.0
20260510095542 58 298 3.0 8.0 0.00 0.00 0.00 56 1014.0
20260510095042 58 50 1.0 4.0 0.00 0.00 0.00 57 1014.0
20260510094543 58 34 2.0 4.0 0.00 0.00 0.00 56 1014.0
20260510094041 58 126 1.0 5.0 0.00 0.00 0.00 56 1014.0
20260510093540 58 246 1.0 5.0 0.00 0.00 0.00 57 1014.1
20260510093040 58 68 1.0 7.0 0.00 0.00 0.00 56 1014.1
20260510092540 57 252 3.0 7.0 0.00 0.00 0.00 56 1014.2
20260510092040 57 69 2.0 7.0 0.00 0.00 0.00 55 1014.2
20260510091539 57 153 1.0 6.0 0.00 0.00 0.00 57 1014.2
20260510091038 58 246 1.0 6.0 0.00 0.00 0.00 56 1014.3
20260510090538 58 175 1.0 5.0 0.00 0.00 0.00 56 1014.4
20260510090037 58 104 1.0 10.0 0.00 0.00 0.00 55 1014.4
20260510085540 58 261 1.0 10.0 0.00 0.00 0.00 54 1014.4
20260510085035 58 195 2.0 8.0 0.00 0.00 0.00 55 1014.3
20260510084534 57 96 2.0 8.0 0.00 0.00 0.00 57 1014.4
20260510084033 56 321 3.0 8.0 0.00 0.00 0.00 56 1014.6
20260510083532 55 255 1.0 6.0 0.00 0.00 0.00 57 1014.6
20260510083029 55 64 2.0 5.0 0.00 0.00 0.00 56 1014.7
20260510082528 55 213 1.0 5.0 0.00 0.00 0.00 58 1014.7
20260510082027 54 290 1.0 5.0 0.00 0.00 0.00 60 1014.7
20260510081532 54 113 1.0 5.0 0.00 0.00 0.00 65 1014.7
20260510081025 54 231 1.0 5.0 0.00 0.00 0.00 67 1014.8
20260510080524 53 117 1.0 3.0 0.00 0.00 0.00 68 1014.8
20260510080021 53 260 0.0 2.0 0.00 0.00 0.00 70 1014.7
20260510075520 52 95 1.0 2.0 0.00 0.00 0.00 71 1014.7
20260510075019 52 95 0.0 3.0 0.00 0.00 0.00 74 1014.7
20260510074521 51 96 1.0 3.0 0.00 0.00 0.00 76 1014.6
20260510074019 51 76 0.0 3.0 0.00 0.00 0.00 77 1014.6
20260510073515 51 64 1.0 3.0 0.00 0.00 0.00 79 1014.7
20260510073014 50 59 1.0 3.0 0.00 0.00 0.00 81 1014.7
20260510072513 50 274 0.0 3.0 0.00 0.00 0.00 82 1014.7
20260510072015 50 254 0.0 0.0 0.00 0.00 0.00 83 1014.7
20260510071511 49 254 0.0 0.0 0.00 0.00 0.00 85 1014.7
20260510071009 49 244 0.0 0.0 0.00 0.00 0.00 85 1014.8
20260510070506 48 244 0.0 0.0 0.00 0.00 0.00 85 1014.8
20260510070005 48 244 0.0 2.0 0.00 0.00 0.00 86 1014.9
20260510065503 48 244 0.0 2.0 0.00 0.00 0.00 86 1014.9
20260510065004 48 236 0.0 2.0 0.00 0.00 0.00 86 1014.9
20260510064502 47 279 0.0 3.0 0.00 0.00 0.00 87 1015.0
20260510064001 47 279 1.0 3.0 0.00 0.00 0.00 88 1015.0
20260510063600 47 68 0.0 3.0 0.00 0.00 0.00 89 1015.0
20260510063103 47 322 0.0 3.0 0.00 0.00 0.00 89 1014.9
20260510062602 46 347 0.0 3.0 0.00 0.00 0.00 91 1015.0
20260510062056 46 233 0.0 4.0 0.00 0.00 0.00 92 1014.9
20260510061556 45 267 1.0 4.0 0.00 0.00 0.00 92 1014.9
20260510061054 45 275 0.0 4.0 0.00 0.00 0.00 92 1014.9
20260510060553 44 284 2.0 4.0 0.00 0.00 0.00 92 1015.0
20260510060052 44 298 1.0 5.0 0.00 0.00 0.00 93 1015.0
20260510055552 44 205 2.0 5.0 0.00 0.00 0.00 93 1015.0
20260510055049 44 216 0.0 4.0 0.00 0.00 0.00 93 1015.1
20260510054548 43 284 1.0 5.0 0.00 0.00 0.00 93 1015.1
20260510054046 43 264 1.0 5.0 0.00 0.00 0.00 94 1015.1
20260510053546 43 279 0.0 3.0 0.00 0.00 0.00 94 1015.2
20260510053046 42 302 1.0 3.0 0.00 0.00 0.00 94 1015.2
20260510052545 42 67 0.0 1.0 0.00 0.00 0.00 93 1015.3
20260510052045 42 67 0.0 0.0 0.00 0.00 0.00 93 1015.3
20260510051545 41 67 0.0 0.0 0.00 0.00 0.00 94 1015.2
20260510051043 41 67 0.0 0.0 0.00 0.00 0.00 93 1015.3
20260510050541 41 67 0.0 0.0 0.00 0.00 0.00 93 1015.2
20260510050043 41 67 0.0 1.0 0.00 0.00 0.00 93 1015.3
20260510045541 40 67 0.0 1.0 0.00 0.00 0.00 93 1015.3
20260510045042 40 67 0.0 1.0 0.00 0.00 0.00 94 1015.4
20260510044547 40 67 0.0 0.0 0.00 0.00 0.00 94 1015.4
20260510044039 39 67 0.0 0.0 0.00 0.00 0.00 94 1015.4
20260510043538 39 67 0.0 0.0 0.00 0.00 0.00 93 1015.5
20260510043038 39 67 0.0 1.0 0.00 0.00 0.00 94 1015.5
20260510042537 38 67 0.0 0.0 0.00 0.00 0.00 93 1015.5
20260510042035 38 67 0.0 0.0 0.00 0.00 0.00 93 1015.7
20260510041535 38 67 0.0 0.0 0.00 0.00 0.00 93 1015.7
20260510041034 38 67 0.0 0.0 0.00 0.00 0.00 93 1015.8
20260510040533 37 67 0.0 1.0 0.00 0.00 0.00 93 1015.8
20260510040032 37 67 0.0 1.0 0.00 0.00 0.00 93 1015.9
20260510035530 37 67 0.0 0.0 0.00 0.00 0.00 93 1016.0
20260510035030 37 67 0.0 0.0 0.00 0.00 0.00 93 1016.1
20260510034535 37 67 0.0 0.0 0.00 0.00 0.00 93 1016.1
20260510034032 36 67 0.0 2.0 0.00 0.00 0.00 93 1016.0
20260510033529 36 67 0.0 2.0 0.00 0.00 0.00 93 1016.1
20260510033031 36 67 0.0 2.0 0.00 0.00 0.00 93 1016.1
20260510032532 36 67 0.0 0.0 0.00 0.00 0.00 93 1016.1
20260510032030 35 67 0.0 0.0 0.00 0.00 0.00 93 1016.2
20260510031532 35 67 0.0 0.0 0.00 0.00 0.00 92 1016.2
20260510031026 35 67 0.0 0.0 0.00 0.00 0.00 92 1016.3
20260510030525 34 67 0.0 0.0 0.00 0.00 0.00 92 1016.4
20260510030025 34 67 0.0 0.0 0.00 0.00 0.00 92 1016.4
20260510025525 34 67 0.0 0.0 0.00 0.00 0.00 91 1016.4
20260510025024 34 67 0.0 0.0 0.00 0.00 0.00 91 1016.5
20260510024523 34 67 0.0 0.0 0.00 0.00 0.00 92 1016.5
20260510024023 34 67 0.0 0.0 0.00 0.00 0.00 91 1016.5
20260510023522 34 67 0.0 0.0 0.00 0.00 0.00 91 1016.6
20260510023022 34 67 0.0 0.0 0.00 0.00 0.00 91 1016.7
20260510022521 34 67 0.0 0.0 0.00 0.00 0.00 91 1016.8
20260510022021 34 67 0.0 0.0 0.00 0.00 0.00 91 1016.8
20260510021532 34 67 0.0 0.0 0.00 0.00 0.00 91 1016.8
20260510021020 34 67 0.0 0.0 0.00 0.00 0.00 91 1016.9
20260510020518 34 67 0.0 0.0 0.00 0.00 0.00 91 1017.0
20260510020018 34 67 0.0 0.0 0.00 0.00 0.00 91 1017.0
20260510015517 35 67 0.0 0.0 0.00 0.00 0.00 91 1017.1
20260510015021 35 67 0.0 0.0 0.00 0.00 0.00 91 1017.1
20260510014517 35 67 0.0 0.0 0.00 0.00 0.00 91 1017.1
20260510014015 35 67 0.0 0.0 0.00 0.00 0.00 90 1017.1
20260510013515 35 67 0.0 0.0 0.00 0.00 0.00 90 1017.2
20260510013013 35 67 0.0 0.0 0.00 0.00 0.00 91 1017.2
20260510012514 36 67 0.0 0.0 0.00 0.00 0.00 91 1017.2
20260510012012 36 67 0.0 0.0 0.00 0.00 0.00 91 1017.2
20260510011512 36 67 0.0 0.0 0.00 0.00 0.00 91 1017.3
20260510011011 36 67 0.0 0.0 0.00 0.00 0.00 90 1017.3
20260510010509 36 67 0.0 0.0 0.00 0.00 0.00 90 1017.4
20260510010009 36 67 0.0 0.0 0.00 0.00 0.00 90 1017.4
20260510005508 36 67 0.0 0.0 0.00 0.00 0.00 90 1017.4
20260510005007 36 67 0.0 0.0 0.00 0.00 0.00 91 1017.5
20260510004506 37 67 0.0 0.0 0.00 0.00 0.00 90 1017.5
20260510004009 37 67 0.0 0.0 0.00 0.00 0.00 90 1017.6
20260510003505 37 67 0.0 0.0 0.00 0.00 0.00 90 1017.7
20260510003005 37 67 0.0 0.0 0.00 0.00 0.00 90 1017.8
20260510002503 37 67 0.0 0.0 0.00 0.00 0.00 90 1017.9
20260510002003 37 67 0.0 1.0 0.00 0.00 0.00 90 1017.9
20260510001503 37 67 0.0 1.0 0.00 0.00 0.00 89 1018.0
20260510001002 37 67 0.0 2.0 0.00 0.00 0.00 89 1018.0
20260510000501 37 67 1.0 2.0 0.00 0.00 0.00 89 1018.1
20260510000100 37 67 0.0 0.0 0.00 0.00 0.00 88 1018.2
20260509235558 38 67 0.0 0.0 0.00 0.00 0.00 88 1018.2
20260509235059 38 67 0.0 0.0 0.00 0.00 0.00 88 1018.2
20260509234600 38 67 0.0 0.0 0.00 0.00 0.00 87 1018.3
20260509234055 39 67 0.0 0.0 0.00 0.00 0.00 87 1018.5
20260509233558 39 67 0.0 0.0 0.00 0.00 0.00 87 1018.5
20260509233055 39 67 0.0 0.0 0.00 0.00 0.00 87 1018.5
20260509232552 39 67 0.0 0.0 0.00 0.00 0.00 87 1018.6
20260509232051 40 67 0.0 0.0 0.00 0.00 0.00 86 1018.6
20260509231551 40 67 0.0 0.0 0.00 0.00 0.00 86 1018.6
20260509231049 41 67 0.0 0.0 0.00 0.00 0.00 86 1018.6
20260509230550 41 67 0.0 0.0 0.00 0.00 0.00 87 1018.7
20260509230046 42 67 0.0 0.0 0.00 0.00 0.00 87 1018.8
20260509225544 42 67 0.0 0.0 0.00 0.00 0.00 88 1018.8
20260509225047 42 67 0.0 0.0 0.00 0.00 0.00 88 1019.0
20260509224554 42 67 0.0 0.0 0.00 0.00 0.00 88 1019.0
20260509224043 42 67 0.0 0.0 0.00 0.00 0.00 87 1019.1
20260509223544 43 67 0.0 0.0 0.00 0.00 0.00 86 1019.2
20260509223042 43 67 0.0 0.0 0.00 0.00 0.00 87 1019.1
20260509222541 44 67 0.0 0.0 0.00 0.00 0.00 88 1019.2
20260509222040 44 67 0.0 0.0 0.00 0.00 0.00 88 1019.2
20260509221556 43 67 0.0 0.0 0.00 0.00 0.00 88 1019.3
20260509221039 43 67 0.0 0.0 0.00 0.00 0.00 87 1019.3
20260509220537 43 67 0.0 0.0 0.00 0.00 0.00 87 1019.3
20260509220037 43 67 0.0 1.0 0.00 0.00 0.00 87 1019.4
20260509215536 42 67 0.0 1.0 0.00 0.00 0.00 86 1019.5
20260509215036 42 67 0.0 1.0 0.00 0.00 0.00 85 1019.5
20260509214534 42 67 0.0 1.0 0.00 0.00 0.00 85 1019.6
20260509214037 42 67 0.0 1.0 0.00 0.00 0.00 85 1019.6
20260509213534 42 67 0.0 1.0 0.00 0.00 0.00 84 1019.6
20260509213034 42 67 0.0 1.0 0.00 0.00 0.00 82 1019.7
20260509212533 42 67 0.0 1.0 0.00 0.00 0.00 81 1019.6
20260509212033 42 67 0.0 1.0 0.00 0.00 0.00 81 1019.6
20260509211533 42 67 0.0 1.0 0.00 0.00 0.00 81 1019.6
20260509211033 43 67 0.0 1.0 0.00 0.00 0.00 80 1019.7
20260509210535 43 67 0.0 0.0 0.00 0.00 0.00 80 1019.7
20260509210033 43 67 0.0 0.0 0.00 0.00 0.00 79 1019.8
20260509205531 43 67 0.0 0.0 0.00 0.00 0.00 79 1019.8
20260509205031 43 67 0.0 0.0 0.00 0.00 0.00 77 1019.8
20260509204531 43 67 0.0 0.0 0.00 0.00 0.00 77 1019.9
20260509204031 43 67 0.0 0.0 0.00 0.00 0.00 76 1019.8
20260509203530 44 67 0.0 0.0 0.00 0.00 0.00 76 1019.9
20260509203031 44 67 0.0 0.0 0.00 0.00 0.00 75 1019.9
20260509202531 44 67 0.0 0.0 0.00 0.00 0.00 75 1020.0
20260509202033 44 67 0.0 0.0 0.00 0.00 0.00 75 1020.0
20260509201534 45 67 0.0 0.0 0.00 0.00 0.00 74 1020.0
20260509201033 45 67 0.0 1.0 0.00 0.00 0.00 73 1020.0
20260509200530 45 67 0.0 1.0 0.00 0.00 0.00 73 1020.0
20260509200030 46 67 0.0 0.0 0.00 0.00 0.00 72 1020.1
20260509195530 46 67 0.0 0.0 0.00 0.00 0.00 72 1020.0
20260509195031 47 67 0.0 0.0 0.00 0.00 0.00 71 1020.0
20260509194529 47 67 0.0 0.0 0.00 0.00 0.00 71 1020.0
20260509194029 47 67 0.0 0.0 0.00 0.00 0.00 70 1020.0
20260509193532 48 67 0.0 0.0 0.00 0.00 0.00 69 1020.0
20260509193030 48 67 0.0 0.0 0.00 0.00 0.00 68 1020.0
20260509192530 48 67 0.0 0.0 0.00 0.00 0.00 68 1020.0
20260509192029 49 67 0.0 0.0 0.00 0.00 0.00 67 1019.9
20260509191529 49 67 0.0 0.0 0.00 0.00 0.00 66 1020.0
20260509191028 50 67 0.0 0.0 0.00 0.00 0.00 65 1020.0
20260509190528 50 67 0.0 0.0 0.00 0.00 0.00 65 1019.9
20260509190029 50 67 0.0 0.0 0.00 0.00 0.00 64 1019.9
20260509185528 51 67 0.0 1.0 0.00 0.00 0.00 62 1019.9
20260509185028 51 67 0.0 2.0 0.00 0.00 0.00 62 1019.9
20260509184527 52 67 0.0 0.0 0.00 0.00 0.00 61 1020.0
20260509184027 52 67 0.0 0.0 0.00 0.00 0.00 60 1019.9
20260509183527 52 67 0.0 0.0 0.00 0.00 0.00 59 1019.9
20260509183027 53 67 0.0 0.0 0.00 0.00 0.00 58 1019.9
20260509182526 53 67 0.0 0.0 0.00 0.00 0.00 57 1019.9
20260509182027 53 67 0.0 1.0 0.00 0.00 0.00 56 1019.9
20260509181527 54 67 0.0 1.0 0.00 0.00 0.00 55 1019.9
20260509181027 54 67 0.0 2.0 0.00 0.00 0.00 54 1019.9
20260509180526 55 67 0.0 1.0 0.00 0.00 0.00 52 1019.9
20260509180026 55 67 0.0 1.0 0.00 0.00 0.00 52 1019.9
20260509175526 55 67 0.0 1.0 0.00 0.00 0.00 51 1019.9
20260509175026 55 67 0.0 2.0 0.00 0.00 0.00 52 1019.9
20260509174525 56 67 1.0 2.0 0.00 0.00 0.00 52 1019.9
20260509174025 56 87 0.0 2.0 0.00 0.00 0.00 52 1019.9
20260509173524 56 87 0.0 3.0 0.00 0.00 0.00 51 1020.0
20260509173024 56 67 0.0 4.0 0.00 0.00 0.00 50 1019.9
20260509172524 57 71 1.0 3.0 0.00 0.00 0.00 49 1019.9
20260509172023 57 251 0.0 4.0 0.00 0.00 0.00 50 1020.0
20260509171534 57 49 1.0 4.0 0.00 0.00 0.00 49 1020.1
20260509171022 58 131 0.0 3.0 0.00 0.00 0.00 47 1020.1
20260509170526 58 179 0.0 3.0 0.00 0.00 0.00 48 1020.2
20260509170028 58 93 0.0 3.0 0.00 0.00 0.00 48 1020.1
20260509165521 58 74 1.0 4.0 0.00 0.00 0.00 47 1020.2
20260509165022 58 63 0.0 3.0 0.00 0.00 0.00 47 1020.2
20260509164521 58 93 1.0 3.0 0.00 0.00 0.00 47 1020.2
20260509164022 58 196 0.0 5.0 0.00 0.00 0.00 47 1020.3
20260509163519 58 217 0.0 4.0 0.00 0.00 0.00 45 1020.4
20260509163024 58 207 1.0 4.0 0.00 0.00 0.00 45 1020.4
20260509162518 58 103 1.0 4.0 0.00 0.00 0.00 44 1020.4
20260509162018 58 59 1.0 4.0 0.00 0.00 0.00 44 1020.5
20260509161517 58 26 1.0 6.0 0.00 0.00 0.00 44 1020.5
20260509161017 58 44 1.0 6.0 0.00 0.00 0.00 44 1020.6
20260509160516 58 107 1.0 4.0 0.00 0.00 0.00 44 1020.7
20260509160018 58 67 1.0 5.0 0.00 0.00 0.00 45 1020.7
20260509155515 59 63 0.0 5.0 0.00 0.00 0.00 45 1020.8
20260509155015 58 142 1.0 4.0 0.00 0.00 0.00 44 1020.8
20260509154518 58 123 1.0 4.0 0.00 0.00 0.00 43 1020.8
20260509154014 58 105 0.0 4.0 0.00 0.00 0.00 46 1020.9
20260509153515 58 175 1.0 4.0 0.00 0.00 0.00 45 1021.0
20260509153013 58 70 2.0 6.0 0.00 0.00 0.00 45 1021.0
20260509152512 59 32 2.0 5.0 0.00 0.00 0.00 46 1021.1
20260509152011 59 125 1.0 4.0 0.00 0.00 0.00 46 1021.2
20260509151509 59 148 1.0 4.0 0.00 0.00 0.00 48 1021.3
20260509151009 58 91 1.0 5.0 0.00 0.00 0.00 48 1021.3
20260509150509 58 92 3.0 6.0 0.00 0.00 0.00 45 1021.4
20260509150016 59 169 2.0 5.0 0.00 0.00 0.00 47 1021.5
20260509145511 60 79 1.0 6.0 0.00 0.00 0.00 48 1021.5